N5AET-1 Weather Reports


Display with metric or nautical units.
time (UTC)temp
F
wind
direction
speed
MPH
gust
MPH
rain 1hr
in
rain 24hr
in
rain mn
in
humidity
%
barometer
mb
20260504021016 73 176 1.0 3.0 0.00 0.00 0.00 43 990.3
20260504020017 74 167 0.0 2.0 0.00 0.00 0.00 43 990.2
20260504015017 74 0.0 1.0 0.00 0.00 0.00 42 990.2
20260504014016 75 191 0.0 1.0 0.00 0.00 0.00 41 990.2
20260504013016 75 225 0.0 2.0 0.00 0.00 0.00 41 990.1
20260504012016 75 201 1.0 2.0 0.00 0.00 0.00 41 990.0
20260504011017 76 196 0.0 1.0 0.00 0.00 0.00 39 990.0
20260504010036 76 0.0 0.0 0.00 0.00 0.00 38 989.9
20260504005057 77 193 1.0 3.0 0.00 0.00 0.00 37 990.0
20260504004016 78 233 0.0 1.0 0.00 0.00 0.00 34 989.9
20260504003016 79 0.0 5.0 0.00 0.00 0.00 34 989.9
20260504002057 80 135 0.0 2.0 0.00 0.00 0.00 33 989.9
20260504001016 80 204 1.0 4.0 0.00 0.00 0.00 34 990.0
20260504000017 81 189 1.0 5.0 0.00 0.00 0.00 33 990.1
20260503235016 81 185 1.0 3.0 0.00 0.00 0.00 32 990.1
20260503234017 81 186 0.0 2.0 0.00 0.00 0.00 34 990.1
20260503233016 81 212 0.0 3.0 0.00 0.00 0.00 33 990.3
20260503232016 82 185 0.0 2.0 0.00 0.00 0.00 32 990.3
20260503231016 82 139 1.0 2.0 0.00 0.00 0.00 31 990.3
20260503230016 83 155 1.0 6.0 0.00 0.00 0.00 31 990.4
20260503225016 83 205 2.0 5.0 0.00 0.00 0.00 30 990.4
20260503224037 83 108 0.0 3.0 0.00 0.00 0.00 30 990.3
20260503223037 82 0.0 2.0 0.00 0.00 0.00 32 990.5
20260503222017 82 264 1.0 14.0 0.00 0.00 0.00 31 990.7
20260503221017 82 170 3.0 8.0 0.00 0.00 0.00 31 990.8
20260503220017 82 213 1.0 3.0 0.00 0.00 0.00 32 990.9
20260503215016 82 260 5.0 12.0 0.00 0.00 0.00 30 990.9
20260503214016 82 228 0.0 3.0 0.00 0.00 0.00 32 991.1
20260503213016 83 263 5.0 10.0 0.00 0.00 0.00 29 991.2
20260503212017 82 260 2.0 7.0 0.00 0.00 0.00 32 991.4
20260503211016 83 188 2.0 5.0 0.00 0.00 0.00 31 991.6
20260503210016 83 252 5.0 9.0 0.00 0.00 0.00 29 991.8
20260503205017 83 144 0.0 1.0 0.00 0.00 0.00 31 991.9
20260503204017 84 220 1.0 2.0 0.00 0.00 0.00 31 992.1
20260503203017 84 195 3.0 6.0 0.00 0.00 0.00 31 992.3
20260503202017 83 240 1.0 8.0 0.00 0.00 0.00 32 992.4
20260503201017 83 249 1.0 4.0 0.00 0.00 0.00 34 992.6
20260503200017 83 227 5.0 9.0 0.00 0.00 0.00 31 992.7
20260503195037 82 194 1.0 5.0 0.00 0.00 0.00 35 993.0
20260503194057 82 220 1.0 3.0 0.00 0.00 0.00 35 993.0
20260503193037 81 234 0.0 5.0 0.00 0.00 0.00 36 993.1
20260503192016 83 244 2.0 4.0 0.00 0.00 0.00 33 993.2
20260503191037 82 224 0.0 5.0 0.00 0.00 0.00 36 993.5
20260503190016 81 180 0.0 10.0 0.00 0.00 0.00 36 993.5
20260503185017 80 234 0.0 3.0 0.00 0.00 0.00 37 993.6
20260503184017 81 187 3.0 5.0 0.00 0.00 0.00 36 993.8
20260503183017 80 257 3.0 12.0 0.00 0.00 0.00 37 994.0
20260503182016 80 219 1.0 9.0 0.00 0.00 0.00 37 994.2
20260503181057 81 196 1.0 8.0 0.00 0.00 0.00 36 994.4
20260503180017 80 227 2.0 6.0 0.00 0.00 0.00 38 994.6
20260503175016 79 268 5.0 11.0 0.00 0.00 0.00 39 994.8
20260503174017 79 182 3.0 6.0 0.00 0.00 0.00 39 995.0
20260503173016 79 234 4.0 9.0 0.00 0.00 0.00 39 995.1
20260503172036 79 229 0.0 8.0 0.00 0.00 0.00 42 995.2
20260503171017 79 225 2.0 7.0 0.00 0.00 0.00 41 995.4
20260503131037 63 240 2.0 7.0 0.00 0.00 0.00 65 995.6
20260503081016 62 248 0.0 1.0 0.00 0.00 0.00 59 994.4
20260503072016 61 0.0 0.0 0.00 0.00 0.00 61 994.7
20260503071016 62 0.0 0.0 0.00 0.00 0.00 60 994.7
20260503055016 64 0.0 1.0 0.00 0.00 0.00 57 994.5
20260503054036 64 0.0 0.0 0.00 0.00 0.00 57 994.6
20260503053016 63 0.0 0.0 0.00 0.00 0.00 57 994.6
20260503052016 63 0.0 0.0 0.00 0.00 0.00 58 994.5
20260503051016 63 0.0 0.0 0.00 0.00 0.00 57 994.4
20260503045515 63 0.0 0.0 0.00 0.00 0.00 57 994.4
20260503044535 63 0.0 0.0 0.00 0.00 0.00 57 994.4
20260503043515 63 0.0 0.0 0.00 0.00 0.00 57 994.4
20260503042515 63 0.0 0.0 0.00 0.00 0.00 56 994.4
20260503041515 63 0.0 0.0 0.00 0.00 0.00 57 994.3
20260503040515 63 0.0 0.0 0.00 0.00 0.00 57 994.3
20260503035515 62 0.0 0.0 0.00 0.00 0.00 59 994.4
20260503034535 62 0.0 0.0 0.00 0.00 0.00 61 994.4
20260503033515 62 0.0 0.0 0.00 0.00 0.00 62 994.4
20260503032515 62 0.0 0.0 0.00 0.00 0.00 62 994.3
20260503031535 62 0.0 0.0 0.00 0.00 0.00 62 994.2
20260503030515 62 0.0 0.0 0.00 0.00 0.00 60 994.1
20260503025515 62 0.0 0.0 0.00 0.00 0.00 62 994.0
20260503024515 63 0.0 0.0 0.00 0.00 0.00 63 994.0
20260503023515 63 0.0 0.0 0.00 0.00 0.00 61 993.9
20260503022515 64 0.0 0.0 0.00 0.00 0.00 59 993.8
20260503021515 65 0.0 0.0 0.00 0.00 0.00 57 993.8